Weather History for Naples, FL

Change the Weather History Date:

Sunday, November 11, 2012

  Actual Average Record
Temperature  
Mean Temperature 72 °F 73 °F  
Max Temperature 82 °F 82 °F 89 °F (1972)
Min Temperature 61 °F 64 °F 47 °F (1962)
Degree Days  
Heating Degree Days 0 0  
Month to date heating degree days 3 0  
Since 1 July heating degree days 4 1  
Cooling Degree Days 7 8  
Month to date cooling degree days 46 100  
Year to date cooling degree days 3887 3695  
Growing Degree Days 22 (Base 50)    
Moisture  
Dew Point 59 °F    
Average Humidity 67    
Maximum Humidity 90    
Minimum Humidity 43    
Precipitation  
Precipitation 0.00 in 0.07 in 0.95 in (1981)
Month to date precipitation 0.12 1.00  
Year to date precipitation 36.15 49.40  
Snow  
Snow 0.00 in - - ()
Month to date snowfall 0.0  
Since 1 July snowfall 0.0  
Since 1 September snowfall 0.0  
Snow Depth 0.00 in    
Sea Level Pressure  
Sea Level Pressure 30.20 in    
Wind  
Wind Speed 9 mph (ENE)    
Max Wind Speed 23 mph    
Max Gust Speed 29 mph    
Visibility 10 miles    
Events      
T = Trace of Precipitation, MM = Missing Value Source: NWS Daily Summary

Daily Weather History Graph

Daily Weather History Graph

Search for Another Location

Airport:

Trip Planner

Search our weather history database for the weather conditions in past years. The results will help you decide how hot, cold, wet, or windy it might be!

Date:

Astronomy

Nov. 11, 2012 Rise Set
Actual Time 6:43 AM EST 5:39 PM EST
Civil Twilight 6:18 AM EST 6:03 PM EST
Nautical Twilight 5:51 AM EST 6:30 PM EST
Astronomical Twilight 5:23 AM EST 6:58 PM EST
Moon 4:07 AM EST (11/11) 3:52 PM EST (11/11)
Length of Visible Light 11h 44m
Length of Day
10h 55m
Waning Crescent, 7% of the Moon is Illuminated
Nov 11
Waning Crescent
Nov 13
New
Nov 20
First Quarter
Nov 28
Full
Dec 6
Last Quarter

Hourly Weather History & Observations

Time (EST) Temp. Heat Index Dew Point Humidity Pressure Visibility Wind Dir Wind Speed Gust Speed Precip Events Conditions
12:53 AM 63.0 °F - 57.0 °F 81% 30.21 in 10.0 mi NNE 5.8 mph - N/A   Mostly Cloudy
1:53 AM 62.1 °F - 57.0 °F 84% 30.20 in 10.0 mi NNE 4.6 mph - N/A   Scattered Clouds
2:53 AM 63.0 °F - 57.0 °F 81% 30.19 in 10.0 mi NNE 4.6 mph - N/A   Mostly Cloudy
3:53 AM 61.0 °F - 57.0 °F 87% 30.18 in 10.0 mi NE 5.8 mph - N/A   Clear
4:53 AM 61.0 °F - 57.0 °F 87% 30.18 in 10.0 mi NE 5.8 mph - N/A   Clear
5:53 AM 63.0 °F - 57.9 °F 84% 30.20 in 10.0 mi NE 5.8 mph - N/A   Mostly Cloudy
6:53 AM 62.1 °F - 57.9 °F 86% 30.21 in 10.0 mi NE 4.6 mph - N/A   Mostly Cloudy
7:53 AM 66.0 °F - 59.0 °F 78% 30.22 in 10.0 mi ENE 8.1 mph - N/A   Clear
8:53 AM 72.0 °F - 59.0 °F 64% 30.23 in 10.0 mi ENE 8.1 mph - N/A   Clear
9:53 AM 75.9 °F - 60.1 °F 58% 30.23 in 10.0 mi ENE 10.4 mph - N/A   Scattered Clouds
11:53 AM 79.0 °F - 60.1 °F 52% 30.21 in 10.0 mi East 13.8 mph 21.9 mph N/A   Mostly Cloudy
12:53 PM 80.1 °F 80.7 °F 59.0 °F 48% 30.18 in 10.0 mi ENE 13.8 mph 23.0 mph N/A   Mostly Cloudy
1:53 PM 81.0 °F 81.3 °F 59.0 °F 47% 30.17 in 10.0 mi East 12.7 mph 21.9 mph N/A   Scattered Clouds
2:53 PM 82.0 °F 82.0 °F 57.9 °F 44% 30.16 in 10.0 mi ENE 15.0 mph 20.7 mph N/A   Scattered Clouds
3:53 PM 80.1 °F 80.7 °F 59.0 °F 48% 30.16 in 10.0 mi East 8.1 mph - N/A   Mostly Cloudy
4:53 PM 78.1 °F - 55.9 °F 46% 30.16 in 10.0 mi East 17.3 mph 23.0 mph N/A   Clear
5:53 PM 75.0 °F - 57.0 °F 53% 30.17 in 10.0 mi East 9.2 mph - N/A   Clear
6:53 PM 71.1 °F - 59.0 °F 66% 30.19 in 10.0 mi ENE 6.9 mph - N/A   Clear
7:53 PM 70.0 °F - 59.0 °F 68% 30.20 in 10.0 mi ENE 8.1 mph - N/A   Clear
8:53 PM 69.1 °F - 61.0 °F 75% 30.21 in 10.0 mi ENE 8.1 mph - N/A   Clear
9:53 PM 66.9 °F - 60.1 °F 79% 30.22 in 10.0 mi NE 5.8 mph - N/A   Clear
10:53 PM 66.0 °F - 61.0 °F 84% 30.22 in 10.0 mi NE 3.5 mph - N/A   Clear
11:53 PM 64.0 °F - 61.0 °F 90% 30.20 in 10.0 mi ENE 4.6 mph - N/A   Clear